Regional Weather Roundup
Issued by NWS Boston, MA

Home | Current Version | Previous Version | Text Only | Print | Product List | Glossary On
Versions: 1 2 3 4 5 6 7 8 9 10 11 12 13 14 15 16 17 18 19 20 21 22 23 24 25 26 27 28 29 30 31 32 33 34 35 36 37 38 39 40 41 42 43 44 45 46 47 48 49 50
000
ASUS41 KBOX 202110
RWRBOX

REGIONAL WEATHER ROUNDUP
NATIONAL WEATHER SERVICE TAUNTON MA
500 PM EDT MON OCT 20 2014

NOTE:  "FAIR" INDICATES FEW OR NO CLOUDS BELOW 12,000 FEET WITH NO
SIGNIFICANT WEATHER AND/OR OBSTRUCTIONS TO VISIBILITY.  THE FOLLOWING
OBSERVATION LOCATIONS DO NOT REPORT PRESENT WEATHER...PROVINCETOWN...
SMITHFIELD...BLOCK ISLAND...KEENE...AND OXFORD.

MAZALL-202200-
EASTERN MASSACHUSETTS

CITY           SKY/WX    TMP DP  RH WIND       PRES   REMARKS
BOSTON         PTCLDY    55  31  39 SW15      29.97R
BEVERLY        PTCLDY    56  29  35 SW15      29.96S
LAWRENCE       CLEAR     55  32  41 W13       29.97S
BEDFORD        MOCLDY    54  32  43 SW9       29.96R
BLUE HILL        N/A     52  31  44 SW9G21    29.96S
NORWOOD        PTCLDY    55  30  38 SW10      29.97S
MARSHFIELD     NOT AVBL
PLYMOUTH       PTCLDY    53  39  59 SW8       29.99S
TAUNTON        PTCLDY    55  37  50 SW9       29.99S
NEW BEDFORD    PTCLDY    54  40  59 SW9       29.99F
$$

MAZALL-202200-
CAPE COD AND THE ISLANDS

CITY           SKY/WX    TMP DP  RH WIND       PRES   REMARKS
FALMOUTH       PTCLDY    54  41  62 SW13G21   30.00F
HYANNIS        PTCLDY    54  39  57 SW12      29.99S
CHATHAM        PTCLDY    53  39  59 SW7G18    30.01S
PROVINCETOWN   PTCLDY    54  36  50 SW14      30.00R
NANTUCKET      PTCLDY    54  41  61 SW17      30.02F
MARTHAS VNYRD  CLEAR     53  39  59 W9        30.01F
$$

MAZALL-202200-
CENTRAL AND WESTERN MASSACHUSETTS

CITY           SKY/WX    TMP DP  RH WIND       PRES   REMARKS
WORCESTER      CLOUDY    50  33  52 SW13      29.97R
FITCHBURG      PTCLDY    56  33  42 S8        29.97S
ORANGE         CLOUDY    54  35  48 S9        29.95S
SPRINGFIELD    MOCLDY    53  35  51 SW9       29.97S
WESTFIELD      MOCLDY    53  35  50 S5        29.97S
NORTH ADAMS    CLOUDY    51  32  48 W8        29.95S
PITTSFIELD     CLOUDY    49  34  56 CALM      29.94S
$$

RIZALL-202200-
RHODE ISLAND

CITY           SKY/WX    TMP DP  RH WIND       PRES   REMARKS
PROVIDENCE     MOCLDY    55  36  48 W6        29.99F
NEWPORT        PTCLDY    54  38  54 VRB7      30.00F
BLOCK ISLAND   PTCLDY    55  41  58 SW16G24   30.01F
SMITHFIELD     CLOUDY    54  30  40 SW6       29.98S
WESTERLY       PTCLDY    55  39  54 SW10      30.01F
$$

CTZALL-202200-
CONNECTICUT

CITY           SKY/WX    TMP DP  RH WIND       PRES   REMARKS
BRADLEY INTL   CLOUDY    54  35  48 SW3       29.97F
HARTFORD       CLOUDY    54  37  52 S10       29.99S
BRIDGEPORT     MOSUNNY   60  39  45 SW15      29.99F
DANBURY        PTSUNNY   56  31  38 SW10      29.98F
GROTON         PTCLDY    55  41  59 SW10      30.00F
NEW HAVEN      PTSUNNY   60  39  45 SW7       29.99F
CHESTER        NOT AVBL
MERIDEN        CLOUDY    55  37  50 S10       29.99F
WILLIMANTIC    MOCLDY    55  37  50 SW7       30.00S
OXFORD         CLOUDY    54  36  50 SW8       29.97F
$$

MEZ002-015-021-024-NHZ003-005-008-011-012-014-VTZ005-008-202200-
NORTHERN NEW ENGLAND

CITY           SKY/WX    TMP DP  RH WIND       PRES   REMARKS
PORTLAND ME    PTCLDY    56  27  32 W8        29.94R
BANGOR ME      PTCLDY    49  24  37 SW9       29.91R
CONCORD NH     CLEAR     52  30  43 SW8       29.94S
MANCHESTER NH  PTCLDY    55  30  38 W7        29.94R
NASHUA NH      PTCLDY    55  34  45 W6G12     29.96S
PORTSMOUTH NH  MOCLDY    56  32  40 SW8       29.94R
JAFFREY NH     CLEAR     51  33  50 SW8       29.95S
KEENE NH       MOCLDY    55  30  38 SW8       29.95R
BURLINGTON VT  CLOUDY    49  35  58 CALM      29.93S
MT. WASHINGTON MOCLDY    21  14  73 NW37        N/A  WCI   1
$$

NYZ052-076-202200-
EASTERN NEW YORK

CITY           SKY/WX    TMP DP  RH WIND       PRES   REMARKS
ALBANY         PTSUNNY   52  34  50 S13       29.94F
NEW YORK CITY  PTSUNNY   60  38  43 S8        29.97F
$$

ANZALL-202200-
MARINE OBSERVATIONS

STATION/POSITION TIME  TEMP    WIND        PRES    VSBY  WAVE
                       AIR SEA DIR/SP/G                  HT/PER
                 (UTC) (F)     (DEG/KT/KT) (MB)    (MI)  (FT/S)
BOSTON BUOY      NOT AVBL
BUZZARDS BAY     NOT AVBL
NANTUCKET SOUND  NOT AVBL
MASS BAY-STELLWA NOT AVBL
ISLE OF SHOALS   NOT AVBL
S OF BLOCK IS    NOT AVBL
$$

......................KEY.........................
  SKY/WX - SKY CONDITION/PRESENT WEATHER
  TMP    - TEMPERATURE IN FAHRENHEIT
  DWPT   - DEWPOINT IN FAHRENHEIT
  RH     - RELATIVE HUMIDITY IN PERCENT
  WIND   - DIRECTION AND SPEED IN MPH
  PRES   - MEAN SEA LEVEL PRESSURE IN INCHES OF HG
  WCI    - WIND CHILL INDEX
  VSB    - VISIBILITY IN MILES
  HX     - HEAT INDEX
  TC     - TEMPERATURE IN CELSIUS
  VRB    - VARIABLE WIND DIRECTION
  N/A    - NOT AVAILABLE


USA.gov is the U.S. government's official web portal to all federal, state and local government web resources and services.